Flag for Canada Weather past 2 weeks in Summerside, Pr.Edward I, Canada

Now
74 °F

Mild.


Feels Like: 75 °F
Forecast: 68 / 80 °F
Wind: 22 mph from South

Location: Summerside Airport

Current Time: Jul 29, 2014 at 10:33:32 AM

Latest Report: Jul 29, 2014 at 10:00 AM


Visibility: N/A

Pressure: 29.68 "Hg

Humidity: 78%

Dew point: 67 °F

Location of SummersideLocation

Historic Weather in Summerside — Graph

°F

Summerside temperature yesterday

Maximum temperature yesterday: 81 °F (at 4:00 PM)
Minimum temperature yesterday: 67 °F (at 4:00 AM)
Average temperature yesterday: 74 °F

Past Weeks' High & Low Weather Summary

 TemperatureHumidityPressure
High82 °F (Jul 16, 1:00 PM)100% (Jul 20, 6:00 AM)30.27 "Hg (Jul 20, 6:00 AM)
Low59 °F (Jul 25, 4:00 AM)37% (Jul 21, 6:00 PM)29.62 "Hg (Jul 29, 4:00 AM)
Average70 °F77%29.90 "Hg
* Reported Jul 14 9:00 AM — Jul 29 9:00 AM, Summerside, Weather by CustomWeather, © 2014

Note: Actual official high and low records may vary slightly from our data, if they occured in-between our weather recording intervals... More about our weather records

Advertising

Summerside weather history for previous 24 hours

 ConditionsComfort  
Time TempWeatherWind HumidityBarometerVisibility
9:00 AM
Jul 29
72 °FMild.20 mph82%29.68 "HgN/A
8:00 AM72 °FMild.18 mph85%29.66 "HgN/A
7:00 AM71 °FMild.16 mph87%29.65 "HgN/A
6:00 AM72 °FMild.18 mph83%29.63 "HgN/A
5:00 AM72 °FMild.18 mph85%29.62 "HgN/A
4:00 AM72 °FMild.16 mph86%29.62 "HgN/A
3:00 AM71 °FMild.16 mph90%29.62 "HgN/A
2:00 AM72 °FMild.16 mph88%29.64 "HgN/A
1:00 AM72 °FMild.15 mph90%29.65 "HgN/A
12:00 AM72 °FMild.15 mph85%29.68 "HgN/A
11:00 PM
Jul 28
74 °FMild.20 mph79%29.69 "HgN/A
10:00 PM74 °FMild.16 mph81%29.71 "HgN/A
9:00 PM74 °FMild.14 mph80%29.72 "HgN/A
8:00 PM75 °FMild.14 mph78%29.73 "HgN/A
7:00 PM76 °FMild.17 mph72%29.74 "HgN/A
5:00 PM78 °FWarm.16 mph75%29.75 "HgN/A
4:00 PM81 °FWarm.16 mph68%29.75 "HgN/A
3:00 PM79 °FWarm.14 mph70%29.76 "HgN/A
2:00 PM80 °FWarm.17 mph67%29.78 "HgN/A
1:00 PM78 °FWarm.20 mph70%29.78 "HgN/A
12:00 PM78 °FWarm.18 mph73%29.79 "HgN/A
11:00 AM75 °FMild.17 mph73%29.80 "HgN/A
10:00 AM73 °FMild.17 mph79%29.80 "HgN/A
Weather by CustomWeather, © 2014

See weather overviewHow to use our weather pages